�������l�o���
Date,Time,MP-1(��Sv/h),MP-2(��Sv/h),MP-3(��Sv/h),MP-4(��Sv/h),MP-5(��Sv/h),MP-6(��Sv/h),MP-7(��Sv/h),MP-8(��Sv/h),����,����(m/s),���J
2019/01/13,00:00,0.790,1.183,0.829,1.515,1.078,0.451,0.800,0.758,�k��,8.1,��
2019/01/13,00:10,0.792,1.184,0.829,1.512,1.078,0.452,0.802,0.756,�k��,7.9,��
2019/01/13,00:20,0.792,1.182,0.829,1.515,1.079,0.452,0.802,0.758,�k��,7.7,��
2019/01/13,00:30,0.791,1.184,0.832,1.514,1.078,0.453,0.802,0.759,�k��,7.9,��
2019/01/13,00:40,0.790,1.184,0.830,1.515,1.079,0.451,0.801,0.759,�k��,7.7,��
2019/01/13,00:50,0.790,1.184,0.829,1.513,1.078,0.452,0.803,0.758,�k��,8.1,��
2019/01/13,01:00,0.790,1.182,0.830,1.511,1.078,0.452,0.802,0.759,�k��,7.8,��
2019/01/13,01:10,0.791,1.183,0.831,1.511,1.078,0.451,0.800,0.758,�k��,8.3,��
2019/01/13,01:20,0.791,1.182,0.829,1.510,1.078,0.451,0.803,0.758,�k��,7.5,��
2019/01/13,01:30,0.791,1.183,0.828,1.516,1.078,0.452,0.804,0.760,�k��,7.3,��
2019/01/13,01:40,0.792,1.182,0.829,1.511,1.079,0.454,0.801,0.758,�k��,7.4,��
2019/01/13,01:50,0.790,1.182,0.830,1.512,1.080,0.452,0.800,0.758,�k�k��,7.6,��
2019/01/13,02:00,0.791,1.182,0.831,1.514,1.077,0.452,0.799,0.758,�k�k��,7.6,��
2019/01/13,02:10,0.791,1.184,0.831,1.514,1.079,0.452,0.802,0.759,�k�k��,7.8,��
2019/01/13,02:20,0.789,1.182,0.831,1.514,1.078,0.450,0.802,0.758,�k�k��,8.0,��
2019/01/13,02:30,0.792,1.182,0.829,1.512,1.077,0.451,0.801,0.758,�k��,8.5,��
2019/01/13,02:40,0.791,1.182,0.829,1.509,1.078,0.453,0.801,0.759,�k��,8.1,��
2019/01/13,02:50,0.790,1.184,0.828,1.514,1.078,0.452,0.802,0.758,�k��,8.2,��
2019/01/13,03:00,0.792,1.181,0.828,1.513,1.076,0.452,0.803,0.757,�k�k��,7.6,��
2019/01/13,03:10,0.788,1.183,0.829,1.514,1.081,0.453,0.801,0.758,�k��,8.1,��
2019/01/13,03:20,0.790,1.182,0.828,1.514,1.077,0.450,0.801,0.758,�k�k��,7.6,��
2019/01/13,03:30,0.790,1.182,0.829,1.509,1.078,0.449,0.802,0.759,�k�k��,8.0,��
2019/01/13,03:40,0.790,1.182,0.830,1.510,1.077,0.451,0.802,0.758,�k��,7.9,��
2019/01/13,03:50,0.791,1.181,0.828,1.512,1.077,0.452,0.801,0.758,�k�k��,7.6,��
2019/01/13,04:00,0.790,1.182,0.830,1.512,1.078,0.451,0.800,0.758,�k�k��,7.9,��
2019/01/13,04:10,0.791,1.182,0.830,1.513,1.078,0.451,0.800,0.759,�k�k��,7.8,��
2019/01/13,04:20,0.790,1.183,0.830,1.513,1.079,0.451,0.800,0.757,�k�k��,8.9,��
2019/01/13,04:30,0.791,1.181,0.829,1.512,1.077,0.453,0.800,0.759,�k��,7.7,��
2019/01/13,04:40,0.789,1.181,0.828,1.513,1.079,0.451,0.799,0.760,�k�k��,8.1,��
2019/01/13,04:50,0.788,1.181,0.829,1.512,1.077,0.450,0.801,0.759,�k�k��,7.4,��
2019/01/13,05:00,0.789,1.181,0.830,1.514,1.078,0.451,0.799,0.759,�k�k��,7.1,��
2019/01/13,05:10,0.790,1.180,0.828,1.512,1.076,0.450,0.801,0.760,�k�k��,7.6,��
2019/01/13,05:20,0.788,1.182,0.829,1.515,1.077,0.452,0.801,0.756,�k�k��,7.6,��
2019/01/13,05:30,0.791,1.183,0.830,1.513,1.077,0.451,0.802,0.759,�k�k��,8.4,��
2019/01/13,05:40,0.789,1.181,0.829,1.514,1.077,0.452,0.800,0.760,�k�k��,8.0,��
2019/01/13,05:50,0.790,1.182,0.829,1.513,1.077,0.451,0.800,0.757,�k�k��,7.8,��
2019/01/13,06:00,0.790,1.181,0.829,1.511,1.078,0.452,0.800,0.757,�k�k��,8.2,��
2019/01/13,06:10,0.791,1.182,0.829,1.513,1.077,0.450,0.800,0.758,�k�k��,8.0,��
2019/01/13,06:20,0.790,1.180,0.830,1.510,1.077,0.453,0.800,0.758,�k�k��,8.1,��
2019/01/13,06:30,0.790,1.180,0.828,1.514,1.078,0.450,0.802,0.759,�k�k��,9.0,��
2019/01/13,06:40,0.790,1.182,0.828,1.512,1.077,0.451,0.800,0.759,�k�k��,9.3,��
2019/01/13,06:50,0.790,1.179,0.829,1.510,1.075,0.450,0.799,0.756,�k�k��,9.5,��
2019/01/13,07:00,0.789,1.181,0.827,1.512,1.078,0.449,0.799,0.757,�k�k��,9.5,��
2019/01/13,07:10,0.788,1.180,0.827,1.510,1.077,0.448,0.801,0.757,�k�k��,8.8,��
2019/01/13,07:20,0.789,1.181,0.827,1.511,1.075,0.448,0.801,0.758,�k�k��,8.8,��
2019/01/13,07:30,0.789,1.183,0.827,1.514,1.076,0.449,0.800,0.758,�k�k��,8.5,��
2019/01/13,07:40,0.789,1.182,0.828,1.512,1.078,0.451,0.801,0.757,�k�k��,8.8,��
2019/01/13,07:50,0.789,1.182,0.828,1.511,1.075,0.451,0.801,0.757,�k�k��,9.0,��
2019/01/13,08:00,0.788,1.182,0.830,1.513,1.078,0.450,0.801,0.757,�k�k��,7.9,��
2019/01/13,08:10,0.790,1.181,0.831,1.511,1.077,0.451,0.801,0.757,�k�k��,7.8,��
2019/01/13,08:20,0.789,1.182,0.830,1.510,1.078,0.451,0.801,0.757,�k�k��,8.3,��
2019/01/13,08:30,0.790,1.183,0.829,1.513,1.079,0.450,0.800,0.758,�k�k��,7.5,��
2019/01/13,08:40,0.790,1.182,0.829,1.511,1.076,0.450,0.801,0.758,�k�k��,7.0,��
2019/01/13,08:50,0.791,1.182,0.830,1.510,1.076,0.452,0.801,0.758,�k�k��,5.5,��
2019/01/13,09:00,0.789,1.183,0.827,1.510,1.077,0.449,0.801,0.759,�k�k��,6.0,��
2019/01/13,09:10,0.791,1.183,0.830,1.511,1.078,0.451,0.802,0.759,�k��,5.2,��
2019/01/13,09:20,0.790,1.183,0.827,1.513,1.078,0.452,0.800,0.760,�k�k��,5.6,��
2019/01/13,09:30,0.792,1.183,0.829,1.511,1.077,0.451,0.801,0.758,�k�k��,6.6,��
2019/01/13,09:40,0.791,1.184,0.830,1.513,1.077,0.451,0.801,0.757,�k�k��,6.2,��
2019/01/13,09:50,0.791,1.184,0.829,1.512,1.077,0.452,0.803,0.759,�k�k��,5.8,��
2019/01/13,10:00,0.791,1.184,0.830,1.514,1.079,0.450,0.801,0.760,�k�k��,5.9,��
2019/01/13,10:10,0.792,1.184,0.830,1.513,1.077,0.450,0.801,0.760,�k�k��,7.0,��
2019/01/13,10:20,0.790,1.185,0.831,1.512,1.079,0.451,0.799,0.760,�k�k��,5.7,��
2019/01/13,10:30,0.789,1.185,0.831,1.513,1.076,0.451,0.800,0.759,�k�k��,5.6,��
2019/01/13,10:40,0.790,1.182,0.830,1.510,1.079,0.451,0.800,0.759,�k�k��,5.1,��
2019/01/13,10:50,0.791,1.182,0.829,1.513,1.078,0.452,0.799,0.760,�k,6.0,��
2019/01/13,11:00,0.791,1.182,0.831,1.511,1.079,0.452,0.801,0.760,�k,6.2,��
2019/01/13,11:10,0.791,1.185,0.830,1.513,1.081,0.450,0.800,0.760,�k,5.5,��
2019/01/13,11:20,0.791,1.182,0.828,1.517,1.079,0.451,0.800,0.760,�k�k��,6.6,��
2019/01/13,11:30,0.792,1.184,0.832,1.513,1.079,0.451,0.800,0.758,�k�k��,7.0,��
2019/01/13,11:40,0.791,1.179,0.829,1.513,1.080,0.451,0.801,0.761,�k�k��,7.9,��
2019/01/13,11:50,0.790,1.182,0.832,1.511,1.079,0.452,0.800,0.760,�k�k��,9.3,��
2019/01/13,12:00,0.791,1.181,0.831,1.515,1.082,0.450,0.800,0.760,�k�k��,7.3,��
2019/01/13,12:10,0.792,1.181,0.830,1.514,1.080,0.451,0.801,0.759,�k�k��,8.8,��
2019/01/13,12:20,0.792,1.182,0.828,1.512,1.081,0.452,0.801,0.760,�k,8.2,��
2019/01/13,12:30,0.792,1.183,0.831,1.515,1.081,0.452,0.803,0.761,�k,9.0,��
2019/01/13,12:40,0.792,1.183,0.831,1.510,1.080,0.450,0.801,0.761,�k,8.9,��
2019/01/13,12:50,0.793,1.184,0.830,1.515,1.081,0.453,0.803,0.761,�k�k��,7.5,��
2019/01/13,13:00,0.794,1.186,0.831,1.516,1.080,0.454,0.802,0.760,�k�k��,7.8,��
2019/01/13,13:10,0.793,1.186,0.832,1.514,1.079,0.450,0.802,0.760,�k�k��,8.0,��
2019/01/13,13:20,0.793,1.185,0.830,1.515,1.082,0.451,0.803,0.762,�k,8.4,��
2019/01/13,13:30,0.792,1.184,0.832,1.513,1.080,0.452,0.802,0.760,�k�k��,7.6,��
2019/01/13,13:40,0.793,1.184,0.833,1.510,1.079,0.452,0.802,0.760,�k,8.0,��
2019/01/13,13:50,0.792,1.186,0.831,1.513,1.082,0.453,0.801,0.756,�k,8.3,��
2019/01/13,14:00,0.793,1.185,0.830,1.513,1.080,0.451,0.802,0.759,�k�k��,9.0,��
2019/01/13,14:10,0.792,1.187,0.832,1.512,1.082,0.450,0.803,0.757,�k,8.2,��
2019/01/13,14:20,0.794,1.183,0.830,1.513,1.081,0.453,0.802,0.757,�k�k��,6.9,��
2019/01/13,14:30,0.793,1.184,0.831,1.514,1.082,0.451,0.803,0.758,�k,7.7,��
2019/01/13,14:40,0.792,1.183,0.832,1.515,1.081,0.451,0.803,0.760,�k,7.9,��
2019/01/13,14:50,0.792,1.184,0.831,1.514,1.080,0.453,0.802,0.762,�k,7.2,��
2019/01/13,15:00,0.793,1.184,0.831,1.513,1.080,0.452,0.804,0.757,�k,7.4,��
2019/01/13,15:10,0.793,1.182,0.829,1.514,1.082,0.451,0.802,0.759,�k,7.1,��
2019/01/13,15:20,0.793,1.184,0.831,1.516,1.082,0.453,0.804,0.761,�k�k��,6.5,��
2019/01/13,15:30,0.793,1.184,0.831,1.514,1.081,0.451,0.801,0.760,�k�k��,6.8,��
2019/01/13,15:40,0.793,1.187,0.833,1.517,1.080,0.451,0.803,0.759,�k�k��,6.1,��
2019/01/13,15:50,0.794,1.185,0.833,1.513,1.083,0.451,0.802,0.760,�k,4.4,��
2019/01/13,16:00,0.793,1.184,0.831,1.514,1.083,0.452,0.802,0.758,�k�k��,5.1,��
2019/01/13,16:10,0.792,1.183,0.831,1.512,1.081,0.451,0.803,0.760,�k�k��,5.3,��
2019/01/13,16:20,0.792,1.185,0.832,1.514,1.082,0.453,0.801,0.760,�k�k��,5.1,��
2019/01/13,16:30,0.792,1.183,0.830,1.511,1.078,0.452,0.801,0.757,�k�k��,6.3,��
2019/01/13,16:40,0.790,1.185,0.830,1.512,1.081,0.450,0.803,0.759,�k�k��,5.4,��
2019/01/13,16:50,0.792,1.184,0.831,1.511,1.079,0.451,0.801,0.759,�k�k��,5.5,��
2019/01/13,17:00,0.793,1.185,0.831,1.514,1.078,0.451,0.802,0.759,�k�k��,5.8,��
2019/01/13,17:10,0.792,1.183,0.830,1.512,1.080,0.453,0.800,0.759,�k�k��,5.7,��
2019/01/13,17:20,0.792,1.182,0.832,1.515,1.082,0.452,0.801,0.758,�k�k��,4.8,��
2019/01/13,17:30,0.791,1.183,0.830,1.512,1.080,0.452,0.799,0.758,�k�k��,4.6,��
2019/01/13,17:40,0.792,1.182,0.830,1.509,1.078,0.451,0.800,0.761,�k��,4.2,��
2019/01/13,17:50,0.792,1.184,0.831,1.511,1.081,0.451,0.801,0.758,�k��,4.9,��
2019/01/13,18:00,0.791,1.182,0.832,1.515,1.079,0.453,0.800,0.757,�k��,4.9,��
2019/01/13,18:10,0.791,1.181,0.831,1.511,1.081,0.450,0.800,0.758,�k��,4.9,��
2019/01/13,18:20,0.792,1.182,0.830,1.513,1.080,0.452,0.801,0.758,�k��,5.4,��
2019/01/13,18:30,0.790,1.182,0.830,1.512,1.077,0.452,0.801,0.760,�k��,4.9,��
2019/01/13,18:40,0.792,1.181,0.830,1.515,1.079,0.451,0.800,0.758,�k��,5.3,��
2019/01/13,18:50,0.792,1.183,0.831,1.513,1.079,0.451,0.801,0.759,�k��,5.0,��
2019/01/13,19:00,0.790,1.184,0.831,1.512,1.080,0.450,0.800,0.759,�k��,5.2,��
2019/01/13,19:10,0.792,1.186,0.828,1.511,1.078,0.451,0.800,0.759,�k��,5.5,��
2019/01/13,19:20,0.789,1.186,0.829,1.512,1.077,0.450,0.800,0.758,�k��,6.0,��
2019/01/13,19:30,0.789,1.184,0.832,1.513,1.078,0.451,0.801,0.758,�k��,5.8,��
2019/01/13,19:40,0.792,1.183,0.829,1.511,1.078,0.454,0.800,0.759,�k��,5.7,��
2019/01/13,19:50,0.791,1.185,0.830,1.512,1.080,0.450,0.801,0.758,�k��,6.5,��
2019/01/13,20:00,0.791,1.184,0.831,1.511,1.078,0.451,0.801,0.756,�k��,6.3,��
2019/01/13,20:10,0.790,1.184,0.831,1.512,1.079,0.451,0.800,0.757,�k��,6.2,��
2019/01/13,20:20,0.790,1.183,0.827,1.510,1.079,0.450,0.800,0.758,�k��,5.8,��
2019/01/13,20:30,0.790,1.183,0.829,1.512,1.079,0.450,0.802,0.758,�k��,4.7,��
2019/01/13,20:40,0.791,1.182,0.829,1.512,1.079,0.452,0.800,0.756,�k��,4.7,��
2019/01/13,20:50,0.791,1.183,0.829,1.513,1.078,0.452,0.797,0.757,�k��,5.5,��
2019/01/13,21:00,0.791,1.183,0.829,1.509,1.078,0.450,0.801,0.758,�k��,4.7,��
2019/01/13,21:10,0.791,1.182,0.828,1.512,1.079,0.450,0.798,0.758,�k��,4.9,��
2019/01/13,21:20,0.790,1.180,0.829,1.511,1.078,0.450,0.799,0.759,�k��,4.5,��
2019/01/13,21:30,0.789,1.185,0.827,1.511,1.079,0.450,0.799,0.758,�k��,5.0,��
2019/01/13,21:40,0.790,1.182,0.829,1.512,1.079,0.451,0.800,0.757,�k�k��,5.7,��
2019/01/13,21:50,0.790,1.184,0.829,1.511,1.079,0.451,0.800,0.758,�k��,5.6,��
2019/01/13,22:00,0.790,1.184,0.829,1.512,1.080,0.450,0.799,0.758,�k��,6.0,��
2019/01/13,22:10,0.790,1.179,0.829,1.513,1.081,0.451,0.799,0.758,�k��,6.1,��
2019/01/13,22:20,0.789,1.184,0.830,1.511,1.078,0.451,0.800,0.757,�k��,5.8,��
2019/01/13,22:30,0.790,1.179,0.830,1.513,1.077,0.452,0.800,0.759,�k��,6.8,��
2019/01/13,22:40,0.792,1.182,0.829,1.511,1.079,0.450,0.801,0.758,�k��,6.4,��
2019/01/13,22:50,0.788,1.184,0.827,1.512,1.078,0.451,0.800,0.759,�k�k��,5.9,��
2019/01/13,23:00,0.792,1.183,0.829,1.513,1.077,0.452,0.801,0.758,�k�k��,6.1,��
2019/01/13,23:10,0.790,1.182,0.831,1.512,1.078,0.451,0.801,0.757,�k�k��,6.4,��
2019/01/13,23:20,0.790,1.179,0.830,1.510,1.082,0.452,0.802,0.759,�k�k��,6.6,��
2019/01/13,23:30,0.791,1.184,0.829,1.512,1.078,0.452,0.800,0.758,�k�k��,7.0,��
2019/01/13,23:40,0.788,1.183,0.829,1.511,1.080,0.452,0.801,0.757,�k�k��,7.4,��
2019/01/13,23:50,0.791,1.182,0.829,1.512,1.079,0.452,0.800,0.757,�k�k��,6.6,��
